Location: Cañada de la Miga
(34.7595°N, 106.2317°W)
Time: 16:09:51
(UTC+00:00)

Transit 4A - Pass Details

Date: 07 December 2021
Orbit: 864 x 981 km, 66.8° (Epoch: 18 January)

Event Time Altitude Azimuth Distance (km) Brightness Sun altitude
Exits shadow 10:46:01 29° 135° (SE) 1,711 9.5 -38.9°
Drops below altitude 10° 10:48:59 10° 143° (SE) 2,722 10.7 -38.3°
Sets 10:51:34 0° 147° (SSE) 3,667 11.4 -37.8°
